TimeCST,TemperatureF,Dew PointF,Humidity,Sea Level PressureIn,VisibilityMPH,Wind Direction,Wind SpeedMPH,Gust SpeedMPH,PrecipitationIn,Events,Conditions,WindDirDegrees,DateUTC
12:29 AM,48.0,45.0,89,30.03,10.0,SW,4.6,-,N/A,,Scattered Clouds,230,2014-02-24 06:29:00
12:53 AM,50.0,46.0,86,30.03,10.0,East,4.6,-,N/A,,Clear,100,2014-02-24 06:53:00
1:53 AM,51.1,39.0,63,30.04,10.0,ESE,6.9,-,N/A,,Clear,110,2014-02-24 07:53:00
2:53 AM,50.0,36.0,59,30.06,10.0,NNE,8.1,-,N/A,,Partly Cloudy,20,2014-02-24 08:53:00
3:53 AM,48.9,36.0,61,30.09,10.0,Variable,5.8,-,N/A,,Clear,0,2014-02-24 09:53:00
4:53 AM,46.0,35.1,66,30.12,10.0,NNE,6.9,-,N/A,,Clear,30,2014-02-24 10:53:00
5:53 AM,45.0,34.0,65,30.15,10.0,NNE,9.2,-,N/A,,Clear,30,2014-02-24 11:53:00
6:53 AM,45.0,35.1,68,30.17,10.0,NE,3.5,-,N/A,,Clear,50,2014-02-24 12:53:00
7:53 AM,46.9,35.1,63,30.20,10.0,NNE,10.4,-,N/A,,Clear,20,2014-02-24 13:53:00
8:53 AM,50.0,36.0,59,30.19,10.0,NNE,5.8,-,N/A,,Clear,30,2014-02-24 14:53:00
9:53 AM,54.0,36.0,51,30.17,10.0,East,4.6,-,N/A,,Clear,80,2014-02-24 15:53:00
10:53 AM,57.9,35.1,42,30.18,10.0,NNE,6.9,-,N/A,,Clear,30,2014-02-24 16:53:00
11:53 AM,60.1,34.0,38,30.15,10.0,NNE,9.2,-,N/A,,Clear,30,2014-02-24 17:53:00
12:53 PM,63.0,30.0,29,30.13,10.0,NNE,9.2,-,N/A,,Clear,30,2014-02-24 18:53:00
1:53 PM,63.0,28.9,28,30.12,10.0,NNW,10.4,-,N/A,,Clear,340,2014-02-24 19:53:00
2:53 PM,63.0,28.9,28,30.11,10.0,NNW,10.4,-,N/A,,Clear,340,2014-02-24 20:53:00
3:53 PM,63.0,28.0,27,30.11,10.0,North,8.1,-,N/A,,Clear,360,2014-02-24 21:53:00
4:53 PM,60.1,26.1,27,30.12,10.0,North,8.1,-,N/A,,Clear,360,2014-02-24 22:53:00
5:53 PM,57.0,25.0,29,30.13,10.0,North,5.8,-,N/A,,Clear,360,2014-02-24 23:53:00
6:53 PM,54.0,28.9,38,30.14,10.0,Calm,Calm,-,N/A,,Clear,0,2014-02-25 00:53:00
7:53 PM,48.9,36.0,61,30.14,10.0,Calm,Calm,-,N/A,,Clear,0,2014-02-25 01:53:00
8:53 PM,48.0,36.0,63,30.15,10.0,Calm,Calm,-,N/A,,Clear,0,2014-02-25 02:53:00
9:53 PM,46.0,36.0,68,30.14,10.0,Calm,Calm,-,N/A,,Clear,0,2014-02-25 03:53:00
10:53 PM,44.1,36.0,73,30.11,10.0,ENE,3.5,-,N/A,,Clear,60,2014-02-25 04:53:00
11:53 PM,46.0,30.9,56,30.09,10.0,NNE,5.8,-,N/A,,Clear,20,2014-02-25 05:53:00